[[{"header":{"parameterUnit":"m.s-1","parameterCategory":1,"la1":30.2992,"la2":30.254,"lo1":-89.0895,"lo2":-89.0443,"dy":0.0025,"dx":0.0025,"nx":19,"ny":19,"refTime":"2026-05-15T03:00:00:Z","depth":0,"parameterNumber":2,"parameterNumberName":"U-component_of_WINDS"},"data":[0,0,0,-3.1396,-3.1397,-3.143,-3.143,-3.1487,-3.1487,0,0,0,0,0,0,0,0,0,0,0,-3.1394,-3.1395,-3.1396,-3.1397,-3.143,-3.143,-3.1486,-3.1487,0,0,0,0,0,0,0,0,0,0,0,-3.1394,-3.1395,-3.1396,-3.1397,-3.143,-3.143,-3.1486,-3.1456,0,0,0,0,0,0,0,0,0,0,-3.1421,-3.1428,-3.1395,-3.1396,-3.1397,-3.143,-3.143,-3.1455,-3.1458,-3.1477,0,-3.1497,0,-3.1493,-3.1492,-3.1492,0,0,0,-3.139,-3.1425,-3.1427,-3.1396,-3.1398,-3.143,-3.1413,-3.1456,-3.146,-3.1482,-3.1498,-3.1499,-3.1494,-3.1492,-3.1493,-3.1626,-3.1626,0,0,-3.1389,-3.1405,-3.1424,-3.143,-3.1426,-3.1412,-3.1414,-3.1459,-3.1476,-3.1498,-3.15,-3.1495,-3.1493,-3.1493,-3.1625,-3.1626,0,0,0,-3.1388,-3.1404,-3.1404,-3.1428,-3.1433,-3.1413,-3.1416,-3.1474,-3.1473,-3.1501,-3.1496,-3.1493,-3.1494,-3.1624,-3.1625,-3.1685,0,0,0,-3.1386,-3.1403,-3.1403,-3.1414,-3.1433,-3.1454,-3.1431,-3.147,-3.1474,-3.1495,-3.1493,-3.1495,-3.1623,-3.1624,-3.1681,-3.171,0,0,0,-3.1389,-3.1403,-3.1411,-3.1414,-3.1429,-3.1453,-3.1454,-3.147,-3.1472,-3.1492,-3.1495,-3.1622,-3.1624,-3.1678,-3.1704,-3.1748,0,0,0,-3.1397,-3.1464,-3.1412,-3.1486,-3.1429,-3.1491,-3.1454,-3.1498,-3.1523,-3.1494,-3.1623,-3.1625,-3.1677,-3.1701,-3.1745,-3.1787,-3.1807,0,0,-3.1491,-3.1476,-3.1518,-3.1472,-3.1547,-3.1484,-3.1568,-3.1575,-3.1563,-3.1605,-3.1608,-3.1682,-3.1704,-3.1748,-3.1915,-3.1931,0,0,0,-3.1553,-3.1583,-3.1599,-3.1624,-3.1632,-3.1641,-3.1634,-3.1637,-3.1673,-3.1588,-3.1711,-3.1723,-3.1748,-3.1768,-3.1781,-3.1801,-3.1635,-3.1635,-3.1635,-3.1707,-3.1688,-3.1755,-3.174,-3.1765,-3.1758,-3.1776,-3.1779,-3.1752,-3.1782,-3.1793,-3.1897,-3.1921,-3.193,-3.1951,-3.1816,-3.1816,-3.1816,-3.1816,-3.184,-3.1879,-3.1843,-3.1896,-3.1875,-3.1919,-3.1916,-3.1896,-3.1933,-3.1887,-3.1908,-3.1857,-3.1948,-3.1965,-3.1821,-3.182,-3.1819,-3.1819,-3.1819,-3.1937,-3.1952,-3.1955,-3.1989,-3.2018,-3.2001,-3.2039,-3.202,-3.2001,-3.2023,-3.2032,-3.2031,-3.2026,-3.2029,-3.2029,-3.203,-3.203,-3.203,-3.2031,-3.2035,-3.2037,-3.2071,-3.2086,-3.21,-3.2115,-3.211,-3.2123,-3.2132,-3.2114,-3.2114,-3.2084,-3.1962,-3.193,-3.2036,-3.2035,-3.2034,-3.2034,-3.2033,-3.2174,-3.2139,-3.2192,-3.2206,-3.2222,-3.2252,-3.2227,-3.2255,-3.2263,-3.2282,-3.2248,-3.2162,-3.2145,-3.2134,-3.2108,-3.2253,-3.2253,-3.2253,-3.2253,-3.2253,-3.2244,-3.2293,-3.2317,-3.2337,-3.2321,-3.2381,-3.2378,-3.237,-3.2374,-3.2351,-3.2315,-3.2305,-3.2294,-3.228,-3.2254,-3.2434,-3.2434,-3.2434,-3.2337,-3.2329,-3.2383,-3.2375,-3.2387,-3.2397,-3.2453,-3.2481,-3.2465,-3.2441,-3.2376,-3.2368,-3.231,-3.2293,-3.2265,-3.2243,-3.2197,0,0]},{"header":{"parameterUnit":"m.s-1","parameterCategory":1,"la1":30.2992,"la2":30.254,"lo1":-89.0895,"lo2":-89.0443,"dy":0.0025,"dx":0.0025,"nx":19,"ny":19,"refTime":"2026-05-15T03:00:00:Z","depth":0,"parameterNumber":3,"parameterNumberName":"V-component_of_WINDS"},"data":[0,0,0,3.3068,3.3069,3.3136,3.3136,3.3217,3.3217,0,0,0,0,0,0,0,0,0,0,0,3.3047,3.3048,3.3068,3.307,3.3136,3.3136,3.3216,3.3217,0,0,0,0,0,0,0,0,0,0,0,3.3047,3.3048,3.3048,3.307,3.3136,3.3136,3.3216,3.3167,0,0,0,0,0,0,0,0,0,0,3.3104,3.3084,3.3047,3.3048,3.307,3.3136,3.3136,3.3165,3.317,3.3185,0,3.3199,0,3.321,3.3222,3.3223,0,0,0,3.307,3.3079,3.3098,3.3048,3.3071,3.3136,3.3106,3.3168,3.3174,3.3192,3.32,3.3203,3.3211,3.3223,3.3223,3.331,3.331,0,0,3.3066,3.3058,3.3094,3.3102,3.3093,3.3104,3.3108,3.3172,3.318,3.3201,3.3205,3.3212,3.3224,3.3224,3.331,3.331,0,0,0,3.3056,3.3056,3.3073,3.3099,3.3111,3.3106,3.3111,3.3177,3.3183,3.3206,3.3213,3.3224,3.3225,3.3309,3.331,3.3322,0,0,0,3.3053,3.3049,3.3072,3.3067,3.311,3.3145,3.3114,3.3179,3.3186,3.3213,3.3224,3.3226,3.3309,3.331,3.332,3.3328,0,0,0,3.3043,3.3048,3.3058,3.3067,3.3095,3.3144,3.3155,3.3181,3.3191,3.3223,3.3226,3.3309,3.3309,3.3319,3.3326,3.3349,0,0,0,3.303,3.3066,3.3058,3.3101,3.3094,3.3152,3.3154,3.3197,3.3226,3.3224,3.3309,3.331,3.3319,3.3325,3.3348,3.3366,3.3373,0,0,3.3071,3.3071,3.3097,3.3091,3.3148,3.3142,3.32,3.3233,3.3243,3.3287,3.3289,3.3321,3.3326,3.3349,3.3416,3.3422,0,0,0,3.3107,3.3126,3.3143,3.3171,3.3198,3.3222,3.3248,3.326,3.3298,3.3264,3.3335,3.3339,3.3352,3.3361,3.3366,3.3378,3.3314,3.3314,3.3314,3.3154,3.3165,3.3209,3.3229,3.3256,3.3283,3.3305,3.3326,3.3329,3.3345,3.3359,3.3398,3.3409,3.3412,3.3425,3.3369,3.3369,3.3369,3.3369,3.3215,3.3244,3.3248,3.3292,3.3303,3.334,3.3366,3.3367,3.3402,3.3389,3.3401,3.3386,3.3418,3.3429,3.337,3.337,3.337,3.337,3.337,3.3247,3.3263,3.3278,3.332,3.3351,3.3369,3.3403,3.3412,3.342,3.3432,3.3447,3.3447,3.3448,3.3439,3.3439,3.3439,3.3439,3.3439,3.3439,3.3274,3.3291,3.332,3.3352,3.3371,3.3398,3.3424,3.3443,3.3466,3.347,3.347,3.3471,3.3419,3.3406,3.3441,3.3441,3.3441,3.3441,3.344,3.3333,3.3321,3.3365,3.3384,3.3423,3.3452,3.3464,3.3501,3.3517,3.3534,3.3532,3.3493,3.3493,3.3489,3.3478,3.353,3.353,3.353,3.353,3.336,3.3361,3.3408,3.3438,3.3469,3.3483,3.3531,3.3552,3.3571,3.3582,3.3576,3.3562,3.3558,3.356,3.3555,3.3545,3.3613,3.3613,3.3613,3.3396,3.3401,3.3441,3.3461,3.3492,3.3518,3.3563,3.3596,3.3615,3.3616,3.359,3.3587,3.3565,3.3558,3.3558,3.3549,3.3531,0,0]}]]